Home   Weather   Fairfield County   Past weeks
Flag for USA

Past Weather in Fairfield County, South Carolina, USA — Yesterday and Last 2 Weeks

Now
45 °F

Sunny.


Feels Like: 42 °F
Forecast: 58 / 37 °F
Wind: 6 mph from North

Location: Columbia Owens Downtown Airport

Current Time: Dec 8, 2019 at 10:38:40 am

Latest Report: Dec 8, 2019 at 9:53 am


Visibility: 10 mi

Pressure: 30.44 "Hg

Humidity: 56%

Dew Point: 30 °F

Location of Fairfield CountyLocation

Past Weather in Fairfield County — Graph

°F

Fairfield County Temperature Yesterday

Maximum temperature yesterday: 64 °F (at 2:53 pm)
Minimum temperature yesterday: 45 °F (at 2:53 am)
Average temperature yesterday: 53 °F

High & Low Weather Summary for the Past Weeks

 TemperatureHumidityPressure
High73 °F (Nov 27, 2:36 pm)93% (Nov 23, 8:53 am)30.44 "Hg (Nov 23, 8:53 am)
Low32 °F (Dec 3, 6:53 am)21% (Nov 28, 2:53 pm)29.56 "Hg (Dec 1, 3:53 pm)
Average53 °F65%29.99 "Hg
* Reported Nov 23 8:53 am — Dec 8 8:53 am, Fairfield County. Weather by CustomWeather, © 2019

Note: Actual official high and low records may vary slightly from our data, if they occured in-between our weather recording intervals... More about our weather records

Fairfield County Weather History for the Previous 24 Hours

Scroll right to see more
 ConditionsComfort  
Time TempWeatherWind HumidityBarometerVisibility
8:53 am
Sun, Dec 8
42 °FSunny.5 mph62%30.44 "Hg10 mi
7:53 am38 °FPassing clouds.6 mph70%30.42 "Hg10 mi
6:53 am38 °FPassing clouds.3 mph73%30.42 "Hg10 mi
5:53 am39 °FClear.3 mph70%30.41 "Hg10 mi
4:53 am40 °FPassing clouds.5 mph70%30.40 "Hg10 mi
3:53 am42 °FClear.5 mph65%30.40 "Hg10 mi
2:53 am44 °FClear.5 mph63%30.39 "Hg10 mi
1:53 am44 °FPassing clouds.5 mph68%30.39 "Hg10 mi
12:53 am46 °FPassing clouds.6 mph66%30.38 "Hg10 mi
11:53 pm
Sat, Dec 7
48 °FClear.5 mph66%30.37 "Hg10 mi
10:53 pm49 °FClear.6 mph66%30.37 "Hg10 mi
9:53 pm50 °FClear.6 mph66%30.35 "Hg10 mi
8:53 pm52 °FClear.7 mph64%30.34 "Hg10 mi
7:53 pm53 °FClear.7 mph64%30.33 "Hg10 mi
6:53 pm53 °FClear.No wind66%30.32 "Hg10 mi
5:53 pm55 °FClear.No wind62%30.30 "Hg10 mi
4:53 pm61 °FSunny.3 mph48%30.28 "Hg10 mi
3:53 pm63 °FSunny.3 mph43%30.27 "Hg10 mi
2:53 pm64 °FSunny.3 mph41%30.26 "Hg10 mi
1:53 pm63 °FSunny.7 mph45%30.25 "Hg10 mi
12:53 pm62 °FSunny.6 mph44%30.26 "Hg10 mi
11:53 am62 °FSunny.5 mph43%30.28 "Hg10 mi
10:53 am59 °FSunny.9 mph46%30.29 "Hg10 mi
Weather by CustomWeather, © 2019

See weather overview

Advertising